SL-14 DEB, 45336

Orbit data source: Space-Track

SL-14 DEB, 45336 is space debris in LEO originally from a launch on Thu, 15 Aug 1991 UTC launched from the Plesetsk Missile And Space Complex (PKMTR). Debris objects in space refer to the collection of defunct objects orbiting the Earth. Examples of debris include non-operational satellites, rocket bodies, and fragments generated from explosions, collisions, or faulty payload assembly.

Loading next visibility...
SL-14 DEB details
Identifier
45336, 1991-056CA
Orbit
LEO
Last TLE update22 hours ago
Origin
Flag of CISRosgidromet (CIS)
ManufacturerUnknown
MissionSpacecraft
Bus & MotorUnknown
MassUnknown
Launch date (UTC)
1991-08-15 (33 years ago)
Launch vehicleUnknown
Launch site
Plesetsk Missile And Space Complex (PKMTR)
Object type
Payload
Rocket body
Debris
Shape & HBRUnknown
Radar Cross SectionSmall (<0.1 m²)

Expand to show TLE details & history

TLE from 22 hours ago
0 SL-14 DEB
1 45336U 91056CA  24339.51849797  .00002330  00000-0  49303-2 0  9992
2 45336  82.5768 155.1846 0052981 306.7017  52.9251 13.29948480231343
Epoch: 2024-12-04T12:26Z
Definitive object data (Epoch: 2024-12-04T12:26:38.224Z)
Latitude-0.00004°
Longitude-105.28717°
Altitude1,125.88 km
Speed7.301 km/s
True Right ascension10h 20m 44s
True Declination0° 00' 00"
Sunlit
Object was in daylight at TLE epoch
Visualization TLE readout
Latitude78.24187°
Longitude-67.431°
Altitude1,188.933 km
Speed7.252 km/s
Apparent Right ascension19h 16m 08s
Apparent Declination36° 26' 48"
Sunlit
Object is in daylight
Visualization observer readout
Local Sidereal Time08:29:19
Azimuth14.95° NNE
Elevation-11.805°
Doppler factor1
Orbital elements
Apogee altitude1,184.037 km
Perigee altitude1,104.329 km
Semi-major axis7,522.32 km
Eccentricity0.0052981
Inclination82.5768°
RAAN155.1846°
Arg. of periapsis306.7017°
True anomaly53.41142°
Mean anomaly52.9251°
Eccentric anomaly53.16807°
Mean motion3.32671 °/min
BSTAR0.0049303
Orbital period108.21 mins
Loading maneuver chart data...
Loading historical data...
Loading historical data...
Loading historical data...
Loading historical data...
Loading historical data...
Loading historical data...
Loading historical data...

SL-14 DEB Visibility forecast

Observer location: undefined°, undefined

Span
Click to sort rows by Start time (UTC) header in descending order
Start Az.
Max El. time (UTC)
Max El. Az.
Max El.
End time (UTC)
End Az.
12 mins2024-12-05 12:00:55.590Z160.612° S2024-12-05 12:06:55.590Z89.637° E37.266°2024-12-05 12:12:55.590Z20.341° NNE
10 mins2024-12-05 13:51:55.590Z240.445° WSW2024-12-05 13:55:55.590Z283.67° WNW25.433°2024-12-05 14:01:55.590Z344.691° N
13 mins2024-12-05 23:20:55.590Z1.143° NNE2024-12-05 23:26:55.590Z78.832° E41.648°2024-12-05 23:33:55.590Z160.006° S
8 mins2024-12-06 01:11:55.590Z313.089° NW2024-12-06 01:15:55.590Z271.727° WNW20.925°2024-12-06 01:19:55.590Z234.617° WSW
|